When you browse on this site, cookies collect data to enhance your experience and personalize the content and advertising you see.
Visit our Privacy Policy to learn more. By continuing to use the site, you agree to this use of cookies and data.
  • In Latvia
  • List of Countries
  • For 7 days
  • Water Temperature
  • Weather Map
  • Weather Widgets
  • user-avatar
    Login

    Hourly Weather Kipungo

    Today, 18 October, Friday

    Time Temperature Precipitation Wind Pressure Humidity
    00:00 +22°C° 0 mm 3 mps 654 mmHg 73%
    01:00 +21°C° 0 mm 2 mps 654 mmHg 81%
    02:00 +21°C° 0 mm 2 mps 653 mmHg 83%
    03:00 +21°C° 0 mm 1 mps 653 mmHg 86%
    04:00 +21°C° 0 mm 1 mps 652 mmHg 89%
    05:00 +22°C° 0 mm 1 mps 653 mmHg 83%
    06:00 +23°C° 0 mm 1 mps 654 mmHg 77%
    07:00 +24°C° 0 mm 1 mps 654 mmHg 70%
    08:00 +27°C° 0 mm 1 mps 655 mmHg 56%
    09:00 +31°C° 0 mm 1 mps 656 mmHg 42%
    10:00 +34°C° 0 mm 1 mps 656 mmHg 27%
    11:00 +35°C° 0 mm 1 mps 656 mmHg 24%
    12:00 +37°C° 0 mm 2 mps 655 mmHg 20%
    13:00 +37°C° 0 mm 2 mps 655 mmHg 16%
    14:00 +37°C° 0 mm 3 mps 654 mmHg 17%
    15:00 +36°C° 0 mm 3 mps 654 mmHg 18%
    16:00 +35°C° 0 mm 3 mps 653 mmHg 19%
    17:00 +33°C° 0 mm 3 mps 653 mmHg 25%
    18:00 +31°C° 0 mm 2 mps 653 mmHg 30%
    19:00 +29°C° 0 mm 2 mps 654 mmHg 36%
    20:00 +28°C° 0 mm 2 mps 654 mmHg 45%
    21:00 +26°C° 0 mm 3 mps 654 mmHg 53%
    22:00 +25°C° 0 mm 3 mps 654 mmHg 62%
    23:00 +24°C° 0 mm 2 mps 654 mmHg 65%

    Tomorrow, 19 October, Saturday

    Time Temperature Precipitation Wind Pressure Humidity
    00:00 +23°C° 0 mm 2 mps 653 mmHg 68%
    01:00 +23°C° 0 mm 1 mps 653 mmHg 71%
    02:00 +22°C° 0 mm 1 mps 653 mmHg 72%
    03:00 +22°C° 0 mm 1 mps 652 mmHg 73%
    04:00 +21°C° 0 mm 1 mps 652 mmHg 75%
    05:00 +22°C° 0 mm 1 mps 653 mmHg 70%
    06:00 +21°C° 0 mm 0 mps 653 mmHg 65%
    07:00 +22°C° 0 mm 0 mps 654 mmHg 59%
    08:00 +28°C° 0 mm 1 mps 655 mmHg 46%
    09:00 +31°C° 0 mm 1 mps 655 mmHg 33%
    10:00 +34°C° 0 mm 1 mps 656 mmHg 21%
    11:00 +36°C° 0 mm 2 mps 656 mmHg 17%
    12:00 +37°C° 0 mm 2 mps 655 mmHg 14%
    13:00 +38°C° 0 mm 3 mps 655 mmHg 10%
    14:00 +38°C° 0 mm 3 mps 654 mmHg 10%
    15:00 +38°C° 0 mm 3 mps 653 mmHg 10%
    16:00 +37°C° 0 mm 3 mps 653 mmHg 11%
    17:00 +35°C° 0 mm 3 mps 653 mmHg 14%
    18:00 +32°C° 0 mm 2 mps 653 mmHg 17%
    19:00 +29°C° 0 mm 2 mps 653 mmHg 20%
    20:00 +28°C° 0 mm 2 mps 653 mmHg 31%
    21:00 +26°C° 0 mm 2 mps 653 mmHg 42%
    22:00 +25°C° 0 mm 3 mps 653 mmHg 53%
    23:00 +24°C° 0 mm 2 mps 653 mmHg 57%

    Day after tomorrow, 20 October, Sunday

    Time Temperature Precipitation Wind Pressure Humidity
    00:00 +23°C° 0 mm 2 mps 653 mmHg 61%
    01:00 +22°C° 0 mm 1 mps 652 mmHg 65%
    02:00 +22°C° 0 mm 1 mps 652 mmHg 68%
    03:00 +21°C° 0 mm 1 mps 652 mmHg 71%
    04:00 +20°C° 0 mm 1 mps 652 mmHg 75%
    05:00 +22°C° 0 mm 1 mps 652 mmHg 68%
    06:00 +23°C° 0 mm 1 mps 653 mmHg 61%
    07:00 +24°C° 0 mm 1 mps 654 mmHg 54%
    08:00 +28°C° 0 mm 1 mps 655 mmHg 42%
    09:00 +31°C° 0 mm 1 mps 655 mmHg 29%
    10:00 +35°C° 0 mm 1 mps 656 mmHg 16%
    11:00 +37°C° 0 mm 2 mps 655 mmHg 14%
    12:00 +38°C° 0 mm 3 mps 655 mmHg 11%
    13:00 +40°C° 0 mm 4 mps 654 mmHg 8%
    14:00 +39°C° 0 mm 3 mps 654 mmHg 8%
    15:00 +38°C° 0 mm 3 mps 653 mmHg 9%
    16:00 +38°C° 0 mm 2 mps 653 mmHg 9%
    17:00 +36°C° 0 mm 2 mps 653 mmHg 12%
    18:00 +32°C° 0 mm 2 mps 653 mmHg 14%
    19:00 +29°C° 0 mm 1 mps 653 mmHg 17%
    20:00 +28°C° 0 mm 2 mps 653 mmHg 29%
    21:00 +26°C° 0 mm 2 mps 653 mmHg 41%
    22:00 +25°C° 0 mm 3 mps 653 mmHg 53%
    23:00 +24°C° 0 mm 2 mps 653 mmHg 57%

    21 October, Monday

    Time Temperature Precipitation Wind Pressure Humidity
    00:00 +23°C° 0 mm 2 mps 653 mmHg 61%
    01:00 +21°C° 0 mm 2 mps 652 mmHg 65%
    02:00 +20°C° 0 mm 2 mps 652 mmHg 69%
    03:00 +20°C° 0 mm 2 mps 652 mmHg 72%
    04:00 +19°C° 0 mm 2 mps 652 mmHg 75%
    05:00 +20°C° 0 mm 2 mps 652 mmHg 69%
    06:00 +21°C° 0 mm 2 mps 653 mmHg 63%
    07:00 +23°C° 0 mm 2 mps 654 mmHg 57%
    08:00 +27°C° 0 mm 2 mps 654 mmHg 44%
    09:00 +31°C° 0 mm 2 mps 655 mmHg 31%
    10:00 +35°C° 0 mm 1 mps 656 mmHg 18%
    11:00 +37°C° 0 mm 2 mps 655 mmHg 14%
    12:00 +39°C° 0 mm 2 mps 655 mmHg 11%
    13:00 +40°C° 0 mm 3 mps 654 mmHg 7%
    14:00 +40°C° 0 mm 3 mps 653 mmHg 8%
    15:00 +39°C° 0 mm 3 mps 653 mmHg 8%
    16:00 +39°C° 0 mm 3 mps 652 mmHg 8%
    17:00 +36°C° 0 mm 3 mps 652 mmHg 13%
    18:00 +33°C° 0 mm 3 mps 652 mmHg 18%
    19:00 +30°C° 0 mm 3 mps 652 mmHg 23%
    20:00 +28°C° 0 mm 3 mps 652 mmHg 32%
    21:00 +27°C° 0 mm 3 mps 653 mmHg 42%
    22:00 +25°C° 0 mm 3 mps 653 mmHg 52%
    23:00 +24°C° 0 mm 3 mps 652 mmHg 55%

    22 October, Tuesday

    Time Temperature Precipitation Wind Pressure Humidity
    00:00 +23°C° 0 mm 2 mps 652 mmHg 59%
    01:00 +21°C° 0 mm 2 mps 652 mmHg 63%
    02:00 +21°C° 0 mm 2 mps 652 mmHg 67%
    03:00 +20°C° 0 mm 2 mps 652 mmHg 70%
    04:00 +19°C° 0 mm 2 mps 652 mmHg 74%
    05:00 +20°C° 0 mm 2 mps 652 mmHg 69%
    06:00 +21°C° 0 mm 2 mps 653 mmHg 63%
    07:00 +23°C° 0 mm 2 mps 653 mmHg 58%
    08:00 +26°C° 0 mm 2 mps 654 mmHg 43%
    09:00 +30°C° 0 mm 2 mps 655 mmHg 27%
    10:00 +35°C° 0 mm 2 mps 655 mmHg 12%
    11:00 +36°C° 0 mm 2 mps 655 mmHg 11%
    12:00 +38°C° 0 mm 2 mps 654 mmHg 9%
    13:00 +40°C° 0 mm 2 mps 654 mmHg 8%
    14:00 +40°C° 0 mm 2 mps 653 mmHg 8%
    15:00 +39°C° 0 mm 2 mps 653 mmHg 8%
    16:00 +39°C° 0 mm 2 mps 652 mmHg 8%
    17:00 +36°C° 0 mm 2 mps 652 mmHg 15%
    18:00 +31°C° 0 mm 3 mps 652 mmHg 22%
    19:00 +28°C° 0 mm 4 mps 651 mmHg 29%
    20:00 +27°C° 0 mm 3 mps 652 mmHg 38%
    21:00 +25°C° 0 mm 3 mps 652 mmHg 47%
    22:00 +24°C° 0 mm 3 mps 652 mmHg 56%
    23:00 +22°C° 0 mm 3 mps 652 mmHg 61%

    23 October, Wednesday

    Time Temperature Precipitation Wind Pressure Humidity
    00:00 +21°C° 0 mm 2 mps 652 mmHg 66%
    01:00 +20°C° 0 mm 2 mps 651 mmHg 71%
    02:00 +19°C° 0 mm 2 mps 651 mmHg 73%
    03:00 +19°C° 0 mm 2 mps 651 mmHg 75%
    04:00 +19°C° 0 mm 1 mps 651 mmHg 77%
    05:00 +20°C° 0 mm 1 mps 652 mmHg 69%
    06:00 +22°C° 0 mm 1 mps 652 mmHg 61%
    07:00 +23°C° 0 mm 1 mps 653 mmHg 53%
    08:00 +27°C° 0 mm 1 mps 654 mmHg 39%
    09:00 +30°C° 0 mm 1 mps 654 mmHg 26%
    10:00 +35°C° 0 mm 2 mps 655 mmHg 13%
    11:00 +36°C° 0 mm 2 mps 655 mmHg 11%
    12:00 +38°C° 0 mm 2 mps 654 mmHg 9%
    13:00 +39°C° 0 mm 2 mps 654 mmHg 8%
    14:00 +39°C° 0 mm 2 mps 653 mmHg 8%
    15:00 +39°C° 0 mm 2 mps 652 mmHg 9%
    16:00 +39°C° 0 mm 2 mps 652 mmHg 9%
    17:00 +36°C° 0 mm 2 mps 652 mmHg 14%
    18:00 +33°C° 0 mm 3 mps 652 mmHg 19%
    19:00 +29°C° 0 mm 3 mps 651 mmHg 23%
    20:00 +27°C° 0 mm 3 mps 652 mmHg 31%
    21:00 +26°C° 0 mm 3 mps 652 mmHg 40%
    22:00 +24°C° 0 mm 3 mps 652 mmHg 48%
    23:00 +22°C° 0 mm 3 mps 652 mmHg 54%
    Show more